Location: Erdweis
(48.5167°N, 15.3500°E)
Time: 23:38:18
(UTC+00:00)

NOSS 2-2 (C) - Pass Details

Date: 22 January 2021
Orbit: 463 x 1745 km, 63.3° (Epoch: 03 March)

Event Time Altitude Azimuth Distance (km) Brightness Sun altitude
Rises 16:23:09 0° 308° (NW) 2,689 7.3 -7.0°
Reaches altitude 10° 16:26:19 10° 338° (NNW) 1,959 6.2 -7.5°
Maximum altitude 16:28:26 13° 7° (N) 1,882 5.8 -7.9°
Drops below altitude 10° 16:30:47 10° 36° (NE) 2,242 5.9 -8.2°
Enters shadow 16:31:51 - 45° (NE) 2,515 6.1 -8.4°
